Regional Weather Roundup
Issued by NWS Boston, MA

Home | Current Version | Previous Version | Text Only | Print | Product List | Glossary On
Versions: 1 2 3 4 5 6 7 8 9 10 11 12 13 14 15 16 17 18 19 20 21 22 23 24 25 26 27 28 29 30 31 32 33 34 35 36 37 38 39 40 41 42 43 44 45 46 47 48 49 50
000
ASUS41 KBOX 042010
RWRBOX

REGIONAL WEATHER ROUNDUP
NATIONAL WEATHER SERVICE TAUNTON MA
400 PM EDT TUE AUG 04 2015

NOTE:  "FAIR" INDICATES FEW OR NO CLOUDS BELOW 12,000 FEET WITH NO
SIGNIFICANT WEATHER AND/OR OBSTRUCTIONS TO VISIBILITY.  THE FOLLOWING
OBSERVATION LOCATIONS DO NOT REPORT PRESENT WEATHER...PROVINCETOWN...
SMITHFIELD...BLOCK ISLAND...KEENE...AND OXFORD.

MAZALL-042100-
EASTERN MASSACHUSETTS

CITY           SKY/WX    TMP DP  RH WIND       PRES   REMARKS
BOSTON         PTSUNNY   81  62  52 NW13      29.80R
BEVERLY        PTSUNNY   68  65  90 CALM      29.80S
LAWRENCE       TSTM      71  66  84 CALM      29.83R
BEDFORD        HAIL      67  62  84 W26G38    29.85R
BLUE HILL        N/A     81  66  60 S10       29.81R
NORWOOD        MOSUNNY   85  64  49 SW13      29.79R
MARSHFIELD     MOSUNNY   84  64  51 SW14G25   29.80S
PLYMOUTH       SUNNY     85  69  58 SW20G26   29.81S
TAUNTON        MOSUNNY   85  68  56 S13G20    29.80S
NEW BEDFORD    SUNNY     83  72  69 S16G23    29.81F
$$

MAZALL-042100-
CAPE COD AND THE ISLANDS

CITY           SKY/WX    TMP DP  RH WIND       PRES   REMARKS
FALMOUTH       PTSUNNY   81  73  78 SW17G28   29.83S
HYANNIS        MOSUNNY   82  73  74 S17G29    29.81F
CHATHAM        CLOUDY    78  75  90 SW10G20   29.84F
PROVINCETOWN   SUNNY     81  68  65 SW15      29.80F
NANTUCKET      MOSUNNY   79  73  82 SW17      29.86F
MARTHAS VNYRD  PTSUNNY   79  74  84 S21G26    29.84F
$$

MAZALL-042100-
CENTRAL AND WESTERN MASSACHUSETTS

CITY           SKY/WX    TMP DP  RH WIND       PRES   REMARKS
WORCESTER      PTSUNNY   70  62  76 NW13      29.84S
FITCHBURG      PTSUNNY   70  64  81 NE5       29.84R
ORANGE         PTSUNNY   72  66  81 VRB5      29.83F
SPRINGFIELD    MOSUNNY   75  66  74 NE7       29.81F
WESTFIELD      MOSUNNY   80  64  58 NW9       29.82R
NORTH ADAMS    SUNNY     77  63  61 CALM      29.84F
PITTSFIELD     MOSUNNY   75  61  61 VRB3      29.86R
$$

RIZALL-042100-
RHODE ISLAND

CITY           SKY/WX    TMP DP  RH WIND       PRES   REMARKS
PROVIDENCE     SUNNY     86  67  52 SW16G28   29.81F
NEWPORT        SUNNY     79  72  79 S10G23    29.83S
BLOCK ISLAND     N/A     79  73  83 SW16G23   29.85F
SMITHFIELD     MOSUNNY   82  68  61 SW8       29.81S
WESTERLY       MOSUNNY   83  70  64 SW14G21   29.84F
$$

CTZALL-042100-
CONNECTICUT

CITY           SKY/WX    TMP DP  RH WIND       PRES   REMARKS
BRADLEY INTL   LGT RAIN  79  63  57 N7        29.80R
HARTFORD       MOSUNNY   89  58  34 SW14G21   29.78F
BRIDGEPORT     SUNNY     88  65  46 SW15      29.81F HX  90
DANBURY        SUNNY     86  58  38 SW10      29.84S
GROTON         MOSUNNY   82  68  62 S7        29.82F
NEW HAVEN      MOSUNNY   85  66  53 SW7       29.82F
CHESTER        NOT AVBL
MERIDEN        MOSUNNY   89  63  41 SW9       29.80F HX  90
WILLIMANTIC    SUNNY     88  65  46 S17G25    29.80F HX  90
OXFORD         MOSUNNY   86  55  35 W10G17    29.86F
$$

MEZ002-015-021-024-NHZ003-005-008-011-012-014-VTZ005-008-042100-
NORTHERN NEW ENGLAND

CITY           SKY/WX    TMP DP  RH WIND       PRES   REMARKS
PORTLAND ME    CLOUDY    70  66  87 S6        29.80R
BANGOR ME      PTSUNNY   81  65  58 S10       29.77R
CONCORD NH     PTSUNNY   75  65  70 S6        29.80R
MANCHESTER NH  CLOUDY    76  63  64 S6        29.80R
NASHUA NH      CLOUDY    70  66  88 CALM      29.81S
PORTSMOUTH NH  NOT AVBL
JAFFREY NH     PTSUNNY   76  65  68 CALM      29.85F
KEENE NH       CLOUDY    77  63  61 S7        29.83R
BURLINGTON VT  PTSUNNY   77  56  48 NW8       29.81S
MT. WASHINGTON PTSUNNY   46  41  81 W35         N/A
$$

NYZ052-076-042100-
EASTERN NEW YORK

CITY           SKY/WX    TMP DP  RH WIND       PRES   REMARKS
ALBANY         MOSUNNY   84  58  40 NW13      29.83R
NEW YORK CITY  MOSUNNY   91  52  26 W12G24    29.83S
$$

ANZALL-042100-
MARINE OBSERVATIONS

STATION/POSITION TIME  TEMP    WIND        PRES    VSBY  WAVE
                       AIR SEA DIR/SP/G                  HT/PER
                 (UTC) (F)     (DEG/KT/KT) (MB)    (MI)  (FT/S)
BOSTON BUOY      1950   77 70  210/ 14/ 17 1008.2F         2/ 4
BUZZARDS BAY     1900          210/ 20/ 21 1010.8F
NANTUCKET SOUND  1950   75 76  220/ 17/ 21 1009.8F         2/ 3
MASS BAY-STELLWA 1904   71 65  170/ 12/ 14   N/A    1 7/8  2/ 6
ISLE OF SHOALS   1900   72     150/ 13/ 13 1008.4F
S OF BLOCK IS    1908      75                N/A           6/ 8
$$

......................KEY.........................
  SKY/WX - SKY CONDITION/PRESENT WEATHER
  TMP    - TEMPERATURE IN FAHRENHEIT
  DWPT   - DEWPOINT IN FAHRENHEIT
  RH     - RELATIVE HUMIDITY IN PERCENT
  WIND   - DIRECTION AND SPEED IN MPH
  PRES   - MEAN SEA LEVEL PRESSURE IN INCHES OF HG
  WCI    - WIND CHILL INDEX
  VSB    - VISIBILITY IN MILES
  HX     - HEAT INDEX
  TC     - TEMPERATURE IN CELSIUS
  VRB    - VARIABLE WIND DIRECTION
  N/A    - NOT AVAILABLE


USA.gov is the U.S. government's official web portal to all federal, state and local government web resources and services.